Location: Calvatone
(45.1167°N, 10.4333°E)
Time: 10:12:56
(UTC+00:00)

CZ-2D R/B - Pass Details

Date: 28 January 2023
Orbit: 509 x 521 km, 97.4° (Epoch: 28 March)

Event Time Altitude Azimuth Distance (km) Brightness Sun altitude
Rises 16:43:51 0° 175° (S) 2,630 7.0 -4.8°
Reaches altitude 10° 16:45:58 10° 179° (S) 1,744 6.2 -5.1°
Maximum altitude 16:49:41 59° 259° (W) 600 3.9 -5.7°
Drops below altitude 10° 16:53:25 10° 340° (NNW) 1,748 5.9 -6.3°
Sets 16:55:32 0° 344° (NNW) 2,637 6.8 -6.7°
